Weather in Toropets

Russia / Tver Oblast     56°30′04″N   31°38′07″E
temp.,
°C
wind,
m/s
gust,
m/s
humid.,
%
clouds,
%
prec.,
mm/h
press.,
hPa
HPBL,
m
23 april, fri
fri2300:00+6w3796100 0.3 1010381
03:00+4sse2388100 4.1 1010218
06:00+5ssw2792100 0.1 1009474
09:00+6sw3670100 0.2 1010809
12:00+8sw5955100 0.2 10102066
15:00+8sw584998 0.4 10101968
18:00+7sw475115 0.0 10101789
21:00+4ssw277374 0.1 1011273
24 april, sat
sat2400:00+3sw258387 0.0 1010138
03:000w2494100 0.0 101098
06:00−1wnw25967 0.0 1010177
09:00+2wnw457358 0.0 1009768
12:00+3w456187 0.1 10101215
15:00+4w3652100 0.1 10101593
18:00+5w565887 0.1 10091317
21:00+2w498897 0.3 1010647
25 april, sun
sun2500:00+1w498815 0.1 1009676
03:00−1wsw399410 0.1 1010368
06:00−2wsw3109213 0.0 1009453
09:00+1wsw5773100 0.0 1009906
12:00+3wsw5773100 0.3 10081159
15:00+4wsw576789 0.9 10091317
18:00+5wsw476298 0.2 10081322
21:000sw28885 0.4 1009191
26 april, mon
mon2600:00−1wsw389643 0.0 1009271
03:000wsw2695100 0.1 1009494
06:00+1wsw3797100 0.3 1009372
09:00+1wsw4684100 0.6 1010643
12:00+2sw4669100 0.1 10101164
15:00+3wsw4664100 0.1 10101242
18:00+3sw356187 0.1 1009994
21:00−1s278520 0.1 1009132
27 april, tue
tue2700:00−2s2887100 0.0 1008174
03:00−2s2788100 0.0 1008174
06:00−1ssw2791100 0.0 1007234
09:00+3sw357493 0.0 1006773
12:00+4sw457299 0.1 10071043
15:00+4wsw4791100 0.5 1007757
18:00+1wnw2697100 0.3 1007494
21:00+2w3798100 0.6 1008541